Regional Weather Roundup
Issued by NWS

Home | Current Version | Previous Version | Text Only | Print | Product List | Glossary Off
Versions: 1 2 3 4 5 6 7 8 9 10 11 12 13 14 15 16 17 18 19 20 21 22 23 24 25 26 27 28 29 30 31 32 33 34 35 36 37 38 39 40 41 42 43 44 45 46 47 48 49 50

289
ASUS45 KTFX 090310
RWRMT
MONTANA REGIONAL WEATHER ROUNDUP
NATIONAL WEATHER SERVICE GREAT FALLS MT
800 PM MST THU DEC 08 2016

NOTE: "FAIR" INDICATES FEW OR NO CLOUDS BELOW 12000 FEET WITH NO
SIGNIFICANT WEATHER AND/OR OBSTRUCTIONS TO VISIBILITY.

MTZ001>007-043-090400-
WEST OF THE DIVIDE

CITY           SKY/WX    TMP DP  RH WIND       PRES   REMARKS
KALISPELL      PTCLDY     7  -3  64 N14       30.20F WCI -10
MISSOULA       MOCLDY    14   6  70 CALM      30.15F
BUTTE          CLOUDY     8  -1  66 SE6       30.00F WCI  -2
MULLAN PASS    CLOUDY     1  -3  83 VRB7      29.87F WCI -12
ANACONDA         N/A      9   1  72 CALM      30.03F
DEER LODGE       N/A      7  -2  66 W5        30.07F
EUREKA           N/A     -9 -15  77 CALM      30.30S
HAMILTON         N/A     16   5  62 S3        30.11S
LIBBY            N/A     12   3  67 N3        30.24S
PLAINS           N/A     17   4  56 CALM      30.19F
RONAN            N/A     13   5  70 CALM      30.17F
$$

MTZ008-052>055-090400-
SOUTHWEST MONTANA

CITY           SKY/WX    TMP DP  RH WIND       PRES   REMARKS
BOZEMAN        CLOUDY     8   2  76 CALM      30.14F
DILLON         LGT SNOW   7   2  80 NE8       30.02F WCI  -6
W YELLOWSTONE  LGT SNOW   5   1  85 CALM      30.03F
ENNIS          CLOUDY     7   3  85 N6        30.08F HAZE    WCI  -3
THREE FORKS      N/A      6 -44   8 CALM      30.13F
TWIN BRIDGES     N/A      9  -5  53 N8        30.04F WCI  -3
$$

MTZ009-010-012-014-046-048-049-054-090400-
EAST SLOPES AND CENTRAL MONTANA

CITY           SKY/WX    TMP DP  RH WIND       PRES   REMARKS
CUT BANK       CLOUDY    -4  -8  83 E7        30.31F WCI -18
GREAT FALLS    CLOUDY    -3  -7  82 NE8       30.31F WCI -18
MALMSTROM AFB  FLURRIES  -3  -6  88 NE9       30.35F WCI -19
HELENA         CLOUDY     1  -8  66 NW8       30.24F WCI -13
AUGUSTA        FLURRIES  -4  -8  86 NE6       30.23F WCI -17
BOWMANS CRNR   FLURRIES  -5  -8  85 N5        30.23F
CHOTEAU          N/A     -2  -6  84 MISG      30.31F
CONRAD           N/A     -3  -7  83 N6        30.31F WCI -15
FAIRFIELD      FLURRIES  -3  -8  79 E5        30.29F
POWER            N/A     -9 -13  83 NE7       30.29F WCI -23
RAYNESFORD     LGT SNOW  -4  -8  81 W5        30.27F
ULM            LGT SNOW  -4  -7  85 NE3       30.33F
$$

MTZ011-013-016-021-045-047-050-051-090400-
NORTH CENTRAL MONTANA

CITY           SKY/WX    TMP DP  RH WIND       PRES   REMARKS
HAVRE          CLOUDY     0  -7  72 NE5       30.47F
LEWISTOWN      CLOUDY    -6 -10  83 E7        30.25F WCI -20
N BAR RANCH      N/A     -6 -11  77 CALM      30.26F
CHINOOK          N/A      1  -8  66 CALM      30.50F
DENTON         FLURRIES  -1  -4  85 NE18G25   30.28F WCI -22
GEYSER         FLURRIES  -2  -5  85 NE6       30.26F WCI -14
GRASS RANGE      N/A     -5  -8  87 W1        30.28F
JUDITH GAP     CLOUDY     2  -3  79 SE12      30.18F WCI -14
ROY              N/A     -4  -7  87 MISG      30.33F
STANFORD       FLURRIES  -3  -6  87 NE8       30.22F WCI -18
WINIFRED         N/A     -4  -7  87 MISG      30.31F
$$

MTZ017>020-022>027-061-062-090400-
NORTHEAST MONTANA

CITY           SKY/WX    TMP DP  RH WIND       PRES   REMARKS
GLASGOW        MOCLDY    -5 -10  79 NE8       30.52S WCI -20
JORDAN           N/A     -2  -7  79 E5        30.46F
SIDNEY         CLOUDY   -10 -15  78 NW6       30.57F WCI -23
WOLF POINT     CLOUDY    -8 -14  74 E3        30.57F
PLENTYWOOD       N/A     -9 -13  84 NW7       30.54S WCI -24
POPLAR           N/A     -9 -15  77 CALM      30.58F
SCOBEY           N/A    -13 -23  61 CALM      30.46F
$$

MTZ028>42-056>058-090400-
SOUTHCENTRAL AND SOUTHEAST MONTANA

CITY           SKY/WX    TMP DP  RH WIND       PRES   REMARKS
BAKER          CLOUDY   -14 -18  82 CALM      30.45F
BILLINGS       CLOUDY     3  -3  76 N9        30.28F WCI -12
LIVINGSTON     CLOUDY     3  -2  79 E8        30.17F WCI -10
MILES CITY     CLEAR     -2  -8  76 NE7       30.46F WCI -15
BIG TIMBER     CLOUDY     3   0  85 E3        30.23F
EKALAKA          N/A     -5 -14  65 SE8       30.28F WCI -20
FORSYTH          N/A      0  -6  78 E5        30.43S
HARLOWTON      CLOUDY     4  -2  77 E9        30.22F WCI -11
LAUREL           N/A      4  -7  60 N5        30.23F
$$

REGIONAL REPORTS...DAKOTAS

CITY           SKY/WX    TMP DP  RH WIND       PRES   REMARKS
WILLISTON      CLOUDY   -10 -14  82 CALM      30.58F
MINOT          CLEAR     -4 -10  75 W8        30.57F WCI -19
DICKINSON      CLOUDY   -13 -17  82 CALM      30.47F
BEACH            N/A    -13 -17  84 CALM      30.51S
CROSBY           N/A     -8 -13  77 W8        30.58F WCI -23
TIOGA            N/A    -11 -15  84 W5        30.54F
WATFORD CITY     N/A    -13 -18  77 CALM      30.56F
BISMARCK       CLOUDY    -2  -7  79 W6        30.61F WCI -14
GRAND FORKS    CLOUDY    11   5  77 NW7       30.58S WCI   0
FARGO          FLURRIES   6  -1  73 NW12      30.59S WCI  -9
BUFFALO SD       N/A     -5 -10  79 CALM      30.36F
RAPID CITY     CLOUDY    -2  -8  76 CALM      30.43F
$$

REGIONAL REPORTS...WYOMING/IDAHO/WASHINGTON

CITY           SKY/WX    TMP DP  RH WIND       PRES   REMARKS
GILLETTE       CLOUDY    -7 -11  83 S6        30.24F WCI -20
SHERIDAN       CLOUDY    -5 -11  75 N3        30.25F
BUFFALO WY     CLOUDY     0  -7  72 SE3       30.16F
CODY           CLOUDY    -2  -6  83 CALM      30.13F
YELLOWSTONE LA   N/A      4   1  88 CALM      29.98F
IDAHO FALLS    LGT SNOW  17  13  84 N7        30.11F FOG     WCI   8
SALMON         CLOUDY    10   9  92 CALM      30.09F
BOISE          LGT SNOW  26  24  92 SE10      30.06F VSB 1   WCI  16
SPOKANE        CLOUDY    19   5  54 NE12      30.09R WCI   7
$$

REGIONAL REPORTS...ALBERTA

CITY           SKY/WX    TMP DP  RH WIND       PRES   REMARKS
EDMONTON       PTCLDY    -8 -15  71 E5        30.56S
CALGARY        CRYSTALS  -6 -13  71 S7        30.36S WCI -20
LETHBRIDGE     FLURRIES  -6  -9  84 SE3       30.43F
MEDICINE HAT   PTCLDY   -15 -18  84 CALM      30.53F
WATERTON GATE    N/A     -8 -13  77 N3          N/A
CARDSTON         N/A    -15 -18  84 SW5         N/A
MILK RIVER       N/A     -6  -9  84 NE2         N/A
$$

REGIONAL REPORTS...SASKATCHEWAN

CITY           SKY/WX    TMP DP  RH WIND       PRES   REMARKS
SWIFT CURRENT  FLURRIES  -8  -9  92 NE2       30.48S
REGINA         PTCLDY   -11 -15  84 NW5       30.56F
SASKATOON      CRYSTALS -13 -18  77 N5        30.64S
CYPRESS HILLS    N/A    -15 -22  70 E3          N/A
VAL MARIE        N/A    -22 -27  76 E2          N/A
ROCKGLEN         N/A     -6  -9  84 NW2         N/A
$$




USA.gov is the U.S. government's official web portal to all federal, state and local government web resources and services.